Saint Simons Island, GA

4:58 PM EST on February 19, 2018 (GMT -0500)
McKinnon

Weather History for KSSI - January, 2014

Change the Weather History Date:

Wednesday, January 8, 2014

  Actual Average Record
Temperature  
Mean Temperature 37 °F 51 °F  
Max Temperature 47 °F 60 °F 79 °F (2005)
Min Temperature 27 °F 42 °F 19 °F (1970)
Degree Days  
Heating Degree Days 28 14  
Month to date heating degree days 156 112  
Since 1 July heating degree days 575 643  
Cooling Degree Days 0 0  
Month to date cooling degree days 0 0  
Year to date cooling degree days 0 0  
Moisture  
Dew Point 30 °F    
Average Humidity 71    
Maximum Humidity 83    
Minimum Humidity 58    
Precipitation  
Precipitation 0.00 in 0.09 in 2.07 in (1964)
Month to date precipitation 1.65 0.70  
Year to date precipitation 1.65 0.70  
Snow  
Snow 0.00 in - 0.00 in ()
Month to date snowfall 0.0  
Since 1 July snowfall 0.0  
Snow Depth 0.00 in    
Sea Level Pressure  
Sea Level Pressure 30.47 in    
Wind  
Wind Speed 11 mph (North)    
Max Wind Speed 22 mph    
Max Gust Speed 29 mph    
Visibility 10 miles    
Events Rain    
T = Trace of Precipitation, MM = Missing Value Source: NWS Daily Summary

Daily Weather History Graph

Daily Weather History Graph

Search for Another Location

Airport or City:

Trip Planner

Search our weather history database for the weather conditions in past years. The results will help you decide how hot, cold, wet, or windy it might be!

Date:

Astronomy

Jan. 08, 2014 Rise Set
Actual Time 7:25 AM EST 5:39 PM EST
Civil Twilight 6:58 AM EST 6:06 PM EST
Nautical Twilight 6:28 AM EST 6:36 PM EST
Astronomical Twilight 5:59 AM EST 7:05 PM EST
Moon 12:19 PM EST (1/8) 12:43 AM EST (1/8)
Length of Visible Light 11h 07m
Length of Day
10h 14m
First Quarter, 56% of the Moon is Illuminated
Jan 8
First Quarter
Jan 15
Full
Jan 24
Last Quarter
Jan 30
New
Feb 6
First Quarter

Hourly Weather History & Observations

Time (EST) Temp. Windchill Dew Point Humidity Pressure Visibility Wind Dir Wind Speed Gust Speed Precip Events Conditions
12:53 AM 27.0 °F 18.7 °F 14.0 °F 58% 30.51 in 10.0 mi North 8.1 mph - N/A   Clear
1:53 AM 28.0 °F 22.8 °F 15.1 °F 58% 30.51 in 10.0 mi NNW 4.6 mph - N/A   Clear
2:53 AM 28.0 °F 20.8 °F 15.1 °F 58% 30.51 in 10.0 mi NNW 6.9 mph - N/A   Clear
3:53 AM 28.0 °F 20.0 °F 15.1 °F 58% 30.50 in 10.0 mi North 8.1 mph - N/A   Clear
4:53 AM 28.0 °F 20.0 °F 16.0 °F 61% 30.49 in 10.0 mi NNW 8.1 mph - N/A   Clear
5:53 AM 28.0 °F 19.3 °F 17.1 °F 63% 30.48 in 10.0 mi North 9.2 mph - N/A   Clear
6:53 AM 28.0 °F 18.6 °F 18.0 °F 66% 30.48 in 10.0 mi North 10.4 mph - N/A   Clear
7:53 AM 28.9 °F 20.4 °F 21.0 °F 72% 30.50 in 10.0 mi North 9.2 mph - N/A   Clear
8:53 AM 32.0 °F 23.6 °F 23.0 °F 69% 30.53 in 10.0 mi North 10.4 mph - N/A   Clear
9:53 AM 37.9 °F 30.0 °F 27.0 °F 65% 30.53 in 10.0 mi North 12.7 mph - N/A   Clear
10:53 AM 42.1 °F 34.9 °F 30.9 °F 65% 30.53 in 10.0 mi NNE 13.8 mph 21.9 mph N/A   Clear
11:53 AM 46.0 °F 38.8 °F 35.1 °F 66% 30.50 in 10.0 mi NNE 18.4 mph 25.3 mph 0.00 in Rain Light Rain
3:53 PM 45.0 °F 37.1 °F 37.0 °F 74% 30.44 in 10.0 mi NNE 19.6 mph 28.8 mph 0.00 in Rain Light Rain
4:13 PM 45.0 °F 38.2 °F 37.0 °F 74% 30.44 in 10.0 mi NNE 15.0 mph 26.5 mph 0.00 in   Overcast
4:22 PM 45.0 °F 37.9 °F 37.0 °F 74% 30.44 in 10.0 mi NNE 16.1 mph 21.9 mph 0.00 in   Overcast
4:41 PM 46.0 °F 39.3 °F 36.0 °F 68% 30.44 in 10.0 mi NNE 16.1 mph 26.5 mph 0.00 in   Scattered Clouds
4:53 PM 46.0 °F 40.6 °F 36.0 °F 68% 30.44 in 10.0 mi NNE 11.5 mph 21.9 mph 0.00 in   Clear
5:53 PM 45.0 °F 38.9 °F 37.0 °F 74% 30.43 in 10.0 mi North 12.7 mph - N/A   Clear
6:35 PM 45.0 °F 38.5 °F 39.0 °F 80% 30.44 in 10.0 mi North 13.8 mph - N/A   Mostly Cloudy
6:53 PM 45.0 °F 38.5 °F 39.9 °F 82% 30.44 in 10.0 mi North 13.8 mph 20.7 mph N/A   Overcast
7:53 PM 46.0 °F 39.6 °F 41.0 °F 83% 30.45 in 10.0 mi NNE 15.0 mph - N/A   Overcast
8:53 PM 46.0 °F 39.3 °F 41.0 °F 83% 30.44 in 10.0 mi NNE 16.1 mph 24.2 mph N/A   Overcast
9:53 PM 46.9 °F - 42.1 °F 83% 30.45 in 10.0 mi NNE 16.1 mph 21.9 mph N/A   Overcast
10:10 PM 46.9 °F - 42.1 °F 83% 30.45 in 10.0 mi NNE 15.0 mph 24.2 mph N/A   Overcast
10:53 PM 45.0 °F 39.3 °F 39.9 °F 82% 30.43 in 10.0 mi North 11.5 mph - N/A   Overcast
11:53 PM 44.1 °F 39.0 °F 37.9 °F 79% 30.43 in 10.0 mi North 9.2 mph - N/A   Overcast